SCD 1

Last updated on Mon Sep 21 2026 00:02:44 GMT+0000 (Coordinated Universal Time)

1 22490U 93009B 26263.52851670 .00000299 00000+0 31120-4 0 9991 2 22490 24.9708 338.8853 0042122 67.1904 315.8129 14.46150148774938
UTC large
Height (km)
Speed (km/s)
/
Latitude / Longitude
Inclination (degrees)
Orbital Period (minutes)
Azimuth
Elevation
Range (km)
Doppler Factor

Next 0 passes for location: London (51.5072 / 0.1276)

No passes found over London.
SCD 1